Regional Weather Roundup
Issued by NWS

Home | Current Version | Previous Version | Text Only | Print | Product List | Glossary Off
Versions: 1 2 3 4 5 6 7 8 9 10 11 12 13 14 15 16 17 18 19 20 21 22 23 24 25 26 27 28 29 30 31 32 33 34 35 36 37 38 39 40 41 42 43 44 45 46 47 48 49 50

000
ASUS43 KFSD 031202
RWRSD

WEATHER ROUNDUP FOR SOUTH DAKOTA
NATIONAL WEATHER SERVICE SIOUX FALLS SD
700 AM CDT SUN MAY 03 2015

NOTE: "FAIR" INDICATES FEW OR NO CLOUDS BELOW 12,000 FEET WITH NO
SIGNIFICANT WEATHER AND/OR OBSTRUCTIONS TO VISIBILITY.


SDZ001>005-009-010-012>017-031300-
NORTHWEST AND NORTH CENTRAL SOUTH DAKOTA

CITY           SKY/WX    TMP DP  RH WIND       PRES   REMARKS
BUFFALO          N/A     48  35  60 NE14      29.88R
FAITH            N/A     47  34  60 N13       29.87R
MOBRIDGE       CLEAR     54  39  57 N18G25    29.80R
$$

SDZ012>016-024>037-041>051-057-063-072>074-031300-
SOUTHWEST AND SOUTH CENTRAL SOUTH DAKOTA

CITY           SKY/WX    TMP DP  RH WIND       PRES   REMARKS
RAPID CTY ARPT MOCLDY    50  33  52 N25       29.87R
PIERRE         PTCLDY    52  36  54 N22       29.74R
CUSTER         MOCLDY    47  25  42 N7        29.92R
ELLSWORTH AFB  PTCLDY    51  34  51 N22       29.89R
PHILIP         PTCLDY    51  32  48 N20       29.78R
PINE RIDGE     MOCLDY    45  38  76 CALM      29.81R
WINNER         FAIR      50  39  66 W3        29.70R
$$

SDZ004>011-016>023-039-040-031300-
NORTHEAST SOUTH DAKOTA

CITY           SKY/WX    TMP DP  RH WIND       PRES   REMARKS
ABERDEEN       CLEAR     52  40  63 N18       29.75R
WATERTOWN      CLEAR     51  49  92 SE5       29.70R FOG
BROOKINGS      CLEAR     57  54  88 S9        29.70F
SISSETON         N/A     51  49  92 NW13      29.72R
$$

SDZ017-020-022-023-036>040-048>070-031300-
SOUTHEAST SOUTH DAKOTA

CITY           SKY/WX    TMP DP  RH WIND       PRES   REMARKS
SIOUX FALLS    MOCLDY    58  53  84 CALM      29.72R
HURON          PTCLDY    50  49  96 NW5       29.69R FOG
MITCHELL       MOCLDY    63  54  72 S10       29.69R
YANKTON        PTCLDY    64  52  63 SW14      29.67R
$$

ABBREVIATIONS USED IN REMARKS
   TC - TEMPERATURE IN CELSIUS
  WCI - WIND CHILL INDEX
   HX - HEAT INDEX
  VSB - VISIBILITY



USA.gov is the U.S. government's official web portal to all federal, state and local government web resources and services.